Voltar ao catálogo

THOR ABLESTAR DEB

AtivoLEO
NORAD 130·DEBRIS·🇺🇸 United States

Lançado Jun 29, 1961 de Cape Canaveral Space Force Station

Loading…

Próximas Passagens (próximas 24 horas)

TLE

AtualizadoSource: Space-Track

Época: Sep 14, 2026, 08:46 UTC

1 00130U 61015Q   26257.36584361  .00000021  00000-0  66243-4 0  9993
2 00130  66.7723  30.5620 0090830 230.0346 129.2735 13.99444122323939

Acompanhe THOR ABLESTAR DEB em tempo real com AllMySat

Download on the App Store